ATLAS 5 CENTAUR DEB, 44674

Orbit data source: Space-Track

ATLAS 5 CENTAUR DEB, 44674 is space debris in HEO originally from a launch on Wed, 17 Oct 2018 UTC launched from the Air Force Eastern Test Range (AFETR). Debris objects in space refer to the collection of defunct objects orbiting the Earth. Examples of debris include non-operational satellites, rocket bodies, and fragments generated from explosions, collisions, or faulty payload assembly.

Loading next visibility...
Identifier
44674, 2018-079AL
Orbit
HEO
Last TLE update
5 days ago
Origin
Manufacturer
ULA Decatur
Mission
Spacecraft
Bus & Motor
Unknown
Mass
Unknown
Launch date (UTC)
2018-10-17 (7 years ago)
Launch vehicle
Unknown
Launch site
Air Force Eastern Test Range (AFETR)
Object type
Payload
Rocket body
Debris
Shape & HBR
Unknown
Radar Cross Section
RCS unknown

Expand to show TLE details & history

TLE from 5 days ago
0 ATLAS 5 CENTAUR DEB
1 44674U 18079AL  25110.27195338 -.00000080  00000-0  00000-0 0  9996
2 44674  12.5025  75.6457 4427111 259.5966  49.1965  1.93807787 41344
Epoch: 2025-04-20T06:31Z
Definitive object data (Epoch: 2025-04-20T06:31:36.772Z)
Latitude
-0.00001°
Longitude
129.10056°
Altitude
17,349.442 km
Speed
4.351 km/s
True Right ascension
05h 02m 25s
True Declination
0° 00' 00"
Sunlit
Object was in daylight at TLE epoch
Visualization TLE readout
Latitude
12.33627°
Longitude
-151.10679°
Altitude
32,811.304 km
Speed
2.382 km/s
Apparent Right ascension
10h 19m 49s
Apparent Declination
5° 40' 43"
Sunlit
Object is in daylight
Visualization observer readout
Local Sidereal Time
22:05:59
Azimuth
355.186° N
Elevation
-44.294°
Doppler factor
1
Orbital elements
Apogee altitude
32,829.205 km
Perigee altitude
8,766.833 km
Semi-major axis
27,176.156 km
Eccentricity
0.4427111
Inclination
12.5025°
RAAN
75.6457°
Arg. of periapsis
259.5966°
True anomaly
100.47871°
Mean anomaly
49.1965°
Eccentric anomaly
73.51992°
Mean motion
0.48446 °/min
BSTAR
Unknown
Orbital period
743.09 mins
Loading maneuver chart data...
Loading SW <> Apogee altitude chart data...

ATLAS 5 CENTAUR DEB Visibility forecast

Observer location: undefined°, undefined°

Span
Click to sort rows by Start time (UTC) header in descending order
Start Az.
Max El. time (UTC)
Max El. Az.
Max El.
End time (UTC)
End Az.
649 mins2025-04-25 21:53:57.998Z226.312° WSW2025-04-26 03:36:57.998Z186.647° SSW40.103°2025-04-26 08:42:57.998Z131.274° SE
|